Location: Fontevrault
(47.1823°N, 0.0493°E)
Time: 06:37:34
(UTC+00:00)

Lacrosse 5 - Visible Passes

Search period start: 26 October 2021 00:00
Search period end: 05 November 2021 00:00
Orbit: 714 x 724 km, 57.0° (Epoch: 28 August)

Date Brightness Start Highest point End Pass type
(mag) Time Alt. Az. Time Alt. Az. Time Alt. Az.
26 Oct 4.6 02:56:07 11° ESE 02:56:07 11° ESE 02:56:16 10° ESE visible
26 Oct 3.3 04:35:23 22° SSW 04:35:23 22° SSW 04:37:57 10° S visible
27 Oct 4.2 03:45:12 12° SSE 03:45:12 12° SSE 03:45:41 10° SSE visible
27 Oct 4.2 19:48:16 10° SSW 19:49:00 14° SSW 19:49:00 14° SSW visible
28 Oct 3.1 18:55:47 10° S 18:58:38 26° SSE 18:58:38 26° SSE visible
29 Oct 3.3 18:03:59 10° SSE 18:07:27 18° ESE 18:08:08 18° ESE visible
29 Oct 3.2 19:44:40 10° SW 19:47:23 32° SW 19:47:23 32° SW visible
30 Oct 2.0 18:51:44 10° SSW 18:56:42 53° SE 18:56:45 53° SE visible
30 Oct 4.5 20:34:55 10° W 20:35:59 16° W 20:35:59 16° W visible
31 Oct 2.7 17:59:16 10° S 18:03:44 31° SE 18:06:01 22° E visible
31 Oct 2.7 19:41:24 10° WSW 19:45:15 48° W 19:45:15 48° W visible
01 Nov 1.8 18:48:08 10° SW 18:53:15 86° SE 18:54:24 55° ENE visible
01 Nov 4.4 20:32:02 10° W 20:33:37 18° WNW 20:33:37 18° WNW visible
02 Nov 2.1 17:55:13 10° SSW 18:00:09 53° SE 18:03:28 20° ENE visible
02 Nov 2.9 19:38:22 10° W 19:42:41 43° NW 19:42:41 43° NW visible
03 Nov 2.2 18:44:51 10° WSW 18:49:55 64° NNW 18:51:40 39° NNE visible
03 Nov 4.4 20:29:13 10° WNW 20:30:52 18° WNW 20:30:52 18° WNW visible
04 Nov 1.8 17:51:35 10° SW 17:56:43 85° SE 18:00:35 18° NE visible
04 Nov 3.2 19:35:29 10° W 19:39:48 34° NNW 19:39:48 34° NNW visible
